#timestamp,LO_Frequency,Hit,StdDev 
1582524015.7,286046996.8,N
1582524035.6,286046998.5,N
1582524055.4,286046999.3,N
1582524075.3,286046998.8,N
1582524095.1,286047000.9,N
1582524096.0,286047000.9,N
1582524115.8,286047000.5,N
1582524135.7,286046999.5,N
1582524155.5,286047001.2,N
1582524175.4,286046997.2,N
1582524195.2,286046995.4,N
1582524215.0,286046997.5,N
1582524215.9,286046997.5,N
1582524235.8,286046996.9,N
1582524255.6,286046998.5,N
1582524275.4,286046997.2,N
1582524295.3,286047000.7,N
1582524315.1,286047000.4,N
1582524335.9,286047001.0,N
1582524355.7,286046999.1,N
1582524375.5,286047000.9,N
1582524395.4,286047001.9,N
1582524415.2,286047001.5,N
1582524435.1,286047001.6,N
1582524436.0,286047001.6,N
1582524455.8,286047001.1,N
1582524475.6,286047000.5,N
1582524495.5,286047000.9,N
1582524515.3,286046998.2,N
1582524535.1,286047000.3,N
1582524555.9,286047000.1,N
1582524575.7,286046998.5,N
1582524595.6,286047000.2,N
1582524615.4,286046998.6,N
1582524635.2,286047000.0,N
1582524655.1,286047002.8,N
1582524656.0,286047002.8,N
1582524675.8,286047002.1,N
1582524695.7,286047000.8,N
1582524715.5,286046999.6,N
1582524735.3,286046995.0,N
1582524755.2,286046995.3,N
1582524775.0,286046997.5,N
1582524775.9,286046997.5,N
1582524795.8,286046998.5,N
1582524815.6,286047002.8,N
1582524835.4,286046999.9,N
1582524855.3,286046998.5,N
1582524875.1,286047000.3,N
1582524895.8,286046998.7,N
1582524915.7,286046997.3,N
1582524935.5,286046997.1,N
1582524955.4,286046996.1,N
1582524975.2,286046996.0,N
1582524995.0,286046996.2,N
1582524995.9,286046996.2,N
1582525015.8,286046996.1,N
1582525035.6,286046992.0,Y
1582525055.5,286046996.3,P
1582525075.3,286046995.4,P
1582525095.1,286046999.1,N
1582525115.9,286047001.1,N
1582525135.7,286046997.7,N
1582525155.5,286046996.8,N
1582525175.4,286047001.2,N
1582525195.2,286047000.4,N
1582525215.1,286046998.2,N
1582525216.0,286046998.2,N
1582525235.8,286046997.0,N
1582525255.6,286046997.2,N
1582525275.5,286046997.3,N
1582525295.3,286046998.2,N
1582525315.2,286046998.4,N
1582525335.9,286046998.6,N
1582525355.7,286046999.0,N
1582525375.6,286046998.5,N
1582525395.4,286046999.4,N
1582525415.3,286047000.7,N
1582525435.1,286046997.0,N
1582525436.0,286046997.0,N
1582525455.8,286046997.1,N
1582525475.7,286047000.9,N
1582525495.5,286047002.4,N
1582525515.3,286046999.4,N
1582525535.2,286046996.7,N
1582525555.0,286046999.9,N
1582525555.9,286046999.9,N
1582525575.8,286046999.7,N
1582525595.6,286047000.2,N
1582525615.4,286046999.8,N
1582525635.3,286047000.8,N
1582525655.1,286047000.3,N
1582525675.9,286047001.6,N
1582525695.7,286047004.0,N
1582525715.5,286047004.1,N
1582525735.4,286047005.8,N
1582525755.2,286047007.2,Y
1582525775.0,286047005.0,P
1582525776.0,286047005.0,N
1582525795.8,286047003.5,N
1582525815.6,286047000.3,N
1582525835.5,286047002.5,N
1582525855.3,286047004.4,N
1582525875.1,286047002.3,N
1582525895.9,286047002.1,N
1582525915.7,286047001.1,N
1582525935.6,286047004.4,N
1582525955.4,286047003.7,N
1582525975.2,286047002.0,N
1582525995.1,286047000.0,N
1582525996.0,286047000.0,N
1582526015.8,286047002.0,N
1582526035.7,286046999.7,N
1582526055.5,286047000.2,N
1582526075.3,286047000.0,N
1582526095.2,286047001.2,N
1582526115.0,286047000.8,N
1582526115.9,286047000.8,N
1582526135.8,286047000.0,N
1582526155.6,286047000.6,N
1582526175.4,286047002.4,N
1582526195.3,286047000.2,N
1582526215.1,286046999.7,N
1582526235.9,286047000.6,N
1582526255.7,286047000.3,N
1582526275.5,286047001.2,N
1582526295.4,286046998.5,N
1582526315.2,286046998.1,N
1582526335.1,286046999.7,N
1582526336.0,286046999.7,N
1582526355.8,286047002.0,N
1582526375.6,286047000.3,N
1582526395.5,286047002.2,N
1582526415.3,286047000.9,N
1582526435.1,286047000.8,N
1582526455.9,286046998.4,N
1582526475.7,286046996.9,N
1582526495.6,286046995.7,Y
1582526515.4,286046996.1,P
1582526535.2,286046995.9,N
1582526555.1,286046995.9,N
1582526556.0,286046995.9,N
1582526575.8,286046998.0,N
1582526595.7,286046996.3,N
1582526615.5,286046994.1,Y
1582526635.3,286046999.5,P
1582526655.2,286046999.0,N
1582526675.0,286046999.2,N
1582526675.9,286046999.2,N
1582526695.8,286046998.8,N
1582526715.6,286046996.8,Y
1582526735.4,286046998.6,P
1582526755.3,286047000.1,N
1582526775.1,286047002.7,P
1582526795.8,286047002.5,N
1582526815.7,286046999.8,N
1582526835.5,286047000.2,N
1582526855.4,286046998.6,N
1582526875.2,286046998.1,N
1582526895.0,286046999.3,N
1582526895.9,286046999.3,N
1582526915.8,286046997.0,N
1582526935.6,286046996.7,N
1582526955.5,286046999.3,N
1582526975.3,286046996.7,N
1582526995.1,286046998.5,N
1582527015.9,286047001.2,N
1582527035.7,286047000.9,N
1582527055.5,286046998.1,N
1582527075.4,286047002.7,N
1582527095.2,286047000.1,N
1582527115.1,286047001.5,N
1582527116.0,286047001.5,N
1582527135.8,286047002.1,N
1582527155.6,286047000.1,N
1582527175.5,286046999.9,N
1582527195.3,286047000.6,N
1582527215.1,286047000.9,N
1582527235.9,286046999.2,N
1582527255.7,286046999.3,N
1582527275.6,286046998.6,N
1582527295.4,286047001.9,N
1582527315.2,286047003.6,N
1582527335.1,286047002.3,N
1582527336.0,286047002.3,N
1582527355.8,286047002.6,N
1582527375.7,286047002.1,N
1582527395.5,286047004.1,N
1582527415.3,286047003.6,N
1582527435.2,286047001.6,N
1582527455.0,286047002.9,N
1582527455.9,286047002.9,N
1582527475.8,286047003.2,N
1582527495.6,286047001.5,N
1582527515.4,286047002.8,N
1582527535.3,286047002.8,N
1582527555.1,286047004.2,N
1582527575.9,286047004.3,N
1582527595.7,286046999.7,N
